Location: Banios
(43.0451°N, 0.2335°E)
Time: 12:57:10
(UTC+00:00)

Vanguard 1 Rocket - All Passes

Search period start: 13 May 2021 00:00
Search period end: 23 May 2021 00:00
Orbit: 652 x 4224 km, 34.3° (Epoch: 12 May)

Date Brightness Start Highest point End Pass type
(mag) Time Alt. Az. Time Alt. Az. Time Alt. Az.
13 May - 04:17:55 10° SSW 04:38:42 33° SE 04:54:28 10° E daylight
13 May - 06:45:20 10° SW 07:08:21 54° SSE 07:21:51 10° E daylight
13 May - 09:17:58 10° W 09:36:50 59° S 09:46:30 10° ESE daylight
13 May - 11:51:11 10° W 12:02:29 33° SW 12:09:03 10° SSE daylight
14 May - 03:07:36 10° S 03:25:08 24° SE 03:40:14 10° E visible
14 May - 05:31:12 10° SW 05:54:41 47° SSE 06:10:15 10° E daylight
14 May - 08:02:17 10° WSW 08:24:10 61° S 08:35:53 10° ESE daylight
14 May - 10:35:50 10° W 10:51:22 48° SSW 10:59:31 10° SE daylight
14 May - 13:09:59 10° W 13:15:12 15° SW 13:19:12 10° SSW daylight
15 May - 02:01:07 10° SSE 02:11:56 14° SE 02:22:15 10° ESE visible
15 May - 04:18:23 10° SSW 04:40:48 39° SSE 04:57:50 10° E daylight
15 May - 06:46:59 10° WSW 07:10:50 59° SSE 07:24:51 10° E daylight
15 May - 09:20:10 10° W 09:39:27 58° SSW 09:49:25 10° ESE daylight
15 May - 11:53:52 10° W 12:04:50 29° SW 12:11:27 10° SSE daylight
16 May - 03:07:12 10° S 03:27:02 30° SE 03:44:11 10° E visible
16 May - 05:32:33 10° SW 05:56:59 53° SSE 06:13:16 10° E daylight
16 May - 08:04:20 10° WSW 08:26:44 63° S 08:38:50 10° ESE daylight
16 May - 10:38:14 10° W 10:53:49 44° SSW 11:02:13 10° SE daylight
16 May - 13:14:37 10° WSW 13:17:18 11° SW 13:19:38 10° SW daylight
17 May - 01:58:29 10° S 02:13:41 20° SE 02:28:14 10° E visible
17 May - 04:19:18 10° SSW 04:42:52 45° SSE 05:00:58 10° E daylight
17 May - 06:48:51 10° WSW 07:13:18 63° S 07:27:47 10° E daylight
17 May - 09:22:24 10° W 09:41:59 56° SSW 09:52:14 10° ESE daylight
17 May - 11:56:44 10° W 12:07:02 24° SW 12:13:34 10° S daylight
18 May - 00:59:52 10° SE 01:00:54 10° SE 01:01:54 10° ESE visible
18 May - 03:07:32 10° SSW 03:28:53 36° SE 03:47:39 10° E visible
18 May - 05:34:09 10° SW 05:59:16 58° SSE 06:16:11 10° E daylight
18 May - 08:06:28 10° W 08:29:17 63° S 08:41:43 10° ESE daylight
18 May - 10:40:41 10° W 10:56:08 39° SW 11:04:45 10° SSE daylight
19 May - 01:57:39 10° S 02:15:21 25° SE 02:32:40 10° E visible
19 May - 04:20:35 10° SW 04:44:56 51° SSE 05:03:57 10° E daylight
19 May - 06:50:51 10° WSW 07:15:44 65° S 07:30:40 10° E daylight
19 May - 09:24:39 10° W 09:44:25 52° SSW 09:54:59 10° SE daylight
19 May - 11:59:53 10° W 12:09:04 20° SW 12:15:20 10° S daylight
20 May - 00:51:17 10° SSE 01:02:27 15° SE 01:14:00 10° E visible
20 May - 03:08:23 10° SSW 03:30:42 42° SE 03:50:48 10° E visible
20 May - 05:35:58 10° WSW 06:01:33 62° SSE 06:19:04 10° E daylight
20 May - 08:08:39 10° W 08:31:44 62° SSW 08:44:33 10° ESE daylight
20 May - 10:43:12 10° W 10:58:18 34° SW 11:07:05 10° SSE daylight
21 May - 01:57:46 10° S 02:16:58 31° SE 02:36:20 10° E visible
21 May - 04:22:11 10° SW 04:47:00 56° SSE 05:06:48 10° E daylight
21 May - 06:52:58 10° WSW 07:18:09 66° S 07:33:31 10° ESE daylight
21 May - 09:26:57 10° W 09:46:41 48° SSW 09:57:34 10° SE daylight
21 May - 12:03:33 10° W 12:10:58 16° SW 12:16:30 10° SSW daylight
22 May - 00:49:28 10° SSE 01:03:56 20° SE 01:19:29 10° E visible
22 May - 03:09:38 10° SW 03:32:32 47° SSE 03:53:44 10° E visible
22 May - 05:37:59 10° WSW 06:03:50 65° S 06:21:53 10° E daylight
22 May - 08:10:53 10° W 08:34:06 59° SSW 08:47:17 10° ESE daylight
22 May - 10:45:52 10° W 11:00:18 29° SW 11:09:10 10° S daylight
